This demonstration page uses our WeatherBlox Daily Observations layout. Learn more.

40.92945, -100.16068

Hourly Observations for January 25, 2018

Temp ( °F °C ) Dew Point ( °F °C ) Humidity (%) Winds ( mph kmh ) Pressure ( in mb ) Visibility ( mi km ) Precip ( " mm )
12:15 am 00:15 Clear 19 -7.3 16 -8.8 89 89 WNW 3 6 30.24 1024 10 16.0934 0 0
12:35 am 00:35 Clear 18 -7.7 15 -9.5 87 87 NW 3 6 30.27 1025 10 16.0934 0 0
12:55 am 00:55 Clear 18 -7.9 15 -9.5 88 88 NW 6 9 30.24 1024 10 16.0934 0 0
1:15 am 01:15 Clear 18 -8 15 -9.6 88 88 NNW 5 7 30.24 1024 10 16.0934 0 0
1:35 am 01:35 Clear 17 -8.4 14 -10.1 88 88 NW 6 9 30.24 1024 10 16.0934 0 0
1:55 am 01:55 Clear 17 -8.1 14 -9.8 88 88 NW 7 11 30.24 1024 10 16.0934 0 0
2:15 am 02:15 Clear 17 -8.5 14 -10.1 88 88 W 3 6 30.24 1024 10 16.0934 0 0
2:35 am 02:35 Clear 17 -8.4 14 -10.1 88 88 WNW 7 11 30.24 1024 10 16.0934 0 0
2:55 am 02:55 Clear 17 -8.1 14 -9.9 87 87 WNW 5 7 30.24 1024 10 16.0934 0 0
3:15 am 03:15 Clear 18 -7.8 15 -9.6 87 87 W 6 9 30.24 1024 10 16.0934 0 0
3:35 am 03:35 Clear 20 -6.9 17 -8.5 89 89 W 6 9 30.21 1023 10 16.0934 0 0
3:55 am 03:55 Clear 21 -6.3 18 -8 88 88 W 6 9 30.21 1023 10 16.0934 0 0
4:15 am 04:15 Clear 21 -6.1 18 -8 87 87 W 5 7 30.21 1023 10 16.0934 0 0
4:35 am 04:35 Clear 21 -6 18 -7.8 87 87 W 3 6 30.21 1023 10 16.0934 0 0
4:55 am 04:55 Clear 21 -6.1 18 -8 87 87 W 3 6 30.18 1022 10 16.0934 0 0
5:15 am 05:15 Clear 21 -6 18 -7.7 88 88 W 5 7 30.18 1022 10 16.0934 0 0
5:35 am 05:35 Clear 21 -6.1 18 -8 87 87 WNW 5 7 30.18 1022 10 16.0934 0 0
5:55 am 05:55 Clear 21 -6.2 17 -8.2 86 86 WNW 6 9 30.18 1022 10 16.0934 0 0
6:15 am 06:15 Clear 20 -6.5 17 -8.5 86 86 W 3 6 30.18 1022 10 16.0934 0 0
6:35 am 06:35 Clear 20 -6.5 17 -8.5 86 86 WNW 3 6 30.18 1022 10 16.0934 0 0
6:55 am 06:55 Clear 20 -6.9 16 -9 85 85 WNW 5 7 30.18 1022 10 16.0934 0 0
7:15 am 07:15 Clear 19 -7.1 15 -9.2 85 85 W 3 6 30.18 1022 10 16.0934 0 0
7:35 am 07:35 Clear 19 -7.2 15 -9.3 85 85 W 3 6 30.18 1022 10 16.0934 0 0
7:55 am 07:55 Sunny 18 -7.6 15 -9.5 86 86 Calm 30.18 1022 10 16.0934 0 0
8:15 am 08:15 Sunny 19 -7.4 16 -9.1 88 88 Calm 30.18 1022 10 16.0934 0 0
8:35 am 08:35 Sunny 19 -7.1 16 -8.9 87 87 Calm 30.18 1022 10 16.0934 0 0
8:55 am 08:55 Sunny 21 -6.2 18 -7.9 88 88 Calm 30.18 1022 10 16.0934 0 0
9:15 am 09:15 Sunny 22 -5.7 18 -7.6 87 87 Calm 30.18 1022 10 16.0934 0 0
9:35 am 09:35 Sunny 23 -5 19 -7 86 86 Calm 30.15 1021 10 16.0934 0 0
9:55 am 09:55 Sunny 25 -4 21 -6.3 84 84 Calm 30.15 1021 10 16.0934 0 0
10:15 am 10:15 Sunny 26 -3.5 21 -6.1 82 82 Calm 30.15 1021 10 16.0934 0 0
10:35 am 10:35 Sunny 27 -2.9 22 -5.8 81 81 Calm 30.15 1021 10 16.0934 0 0
10:55 am 10:55 Sunny 28 -2.3 22 -5.6 78 78 Calm 30.15 1021 10 16.0934 0 0
11:15 am 11:15 Sunny 29 -1.7 23 -5 78 78 Calm 30.09 1019 10 16.0934 0 0
11:35 am 11:35 Sunny 31 -0.6 25 -4.1 77 77 Calm 30.09 1019 10 16.0934 0 0
11:55 am 11:55 Sunny 32 0 25 -3.8 76 76 Calm 30.09 1019 10 16.0934 0 0
12:15 pm 12:15 Sunny 34 0.9 26 -3.4 73 73 Calm 30.03 1017 10 16.0934 0 0
12:35 pm 12:35 Sunny 35 1.8 27 -2.8 72 72 Calm 30 1016 10 16.0934 0 0
12:55 pm 12:55 Sunny 38 3.1 28 -2.3 68 68 Calm 29.97 1015 10 16.0934 0 0
1:15 pm 13:15 Sunny 38 3.3 29 -1.6 71 71 Calm 29.94 1014 10 16.0934 0 0
1:35 pm 13:35 Sunny 38 3.4 30 -1.3 72 72 ENE 3 6 29.91 1013 10 16.0934 0 0
1:55 pm 13:55 Sunny 43 6.3 30 -1.2 59 59 SSE 6 9 29.88 1012 10 16.0934 0 0
2:15 pm 14:15 Sunny 44 6.6 31 -0.7 60 60 SSE 5 7 29.85 1011 10 16.0934 0 0
2:35 pm 14:35 Sunny 45 7 31 -0.6 59 59 SSE 10 17 29.85 1011 10 16.0934 0 0
2:55 pm 14:55 Sunny 44 6.5 31 -0.5 61 61 SSE 10 17 29.85 1011 10 16.0934 0 0
3:15 pm 15:15 Sunny 44 6.7 32 0 63 63 SSE 9 15 29.85 1011 10 16.0934 0 0
3:35 pm 15:35 Sunny 45 7.1 32 0 61 61 SSE 10 17 29.85 1011 10 16.0934 0 0
3:55 pm 15:55 Sunny 45 7.2 32 0 61 61 SSE 10 17 29.85 1011 10 16.0934 0 0
4:15 pm 16:15 Sunny 45 7 32 0.1 62 62 SSE 10 17 29.83 1010 10 16.0934 0 0
4:35 pm 16:35 Sunny 44 6.5 33 0.5 66 66 SE 7 11 29.83 1010 10 16.0934 0 0
4:55 pm 16:55 Sunny 44 6.4 32 0 64 64 SE 9 15 29.83 1010 10 16.0934 0 0
5:15 pm 17:15 Sunny 42 5.5 32 0 68 68 ESE 6 9 29.83 1010 10 16.0934 0 0
5:35 pm 17:35 Sunny 41 5.1 32 0 70 70 ESE 7 11 29.8 1009 10 16.0934 0 0
5:55 pm 17:55 Clear 40 4.5 31 -0.6 70 70 ESE 8 13 29.8 1009 10 16.0934 0 0
6:15 pm 18:15 Clear 40 4.3 30 -0.9 69 69 ESE 6 9 29.83 1010 10 16.0934 0 0
6:35 pm 18:35 Clear 40 4.3 30 -1 69 69 SE 6 9 29.83 1010 10 16.0934 0 0
6:55 pm 18:55 Clear 40 4.4 29 -1.4 66 66 SE 6 9 29.83 1010 10 16.0934 0 0
7:15 pm 19:15 Clear 42 5.5 29 -1.9 59 59 SSE 10 17 29.77 1008 10 16.0934 0 0
7:35 pm 19:35 Clear 43 5.9 28 -2.4 56 56 SE 8 13 29.77 1008 10 16.0934 0 0
7:55 pm 19:55 Clear 44 6.5 27 -2.7 52 52 SSE 12 19 29.77 1008 10 16.0934 0 0
8:15 pm 20:15 Clear 45 7.4 26 -3.3 47 47 S 15 24 29.74 1007 10 16.0934 0 0
8:35 pm 20:35 Clear 46 7.9 25 -3.9 43 43 S 22 35 29.71 1006 10 16.0934 0 0
8:55 pm 20:55 Clear 47 8.1 25 -4.1 42 42 S 24 39 29.71 1006 10 16.0934 0 0
9:15 pm 21:15 Clear 47 8.1 26 -3.3 45 45 S 23 37 29.71 1006 10 16.0934 0 0
9:35 pm 21:35 Clear 46 7.7 27 -3 47 47 S 20 31 29.71 1006 10 16.0934 0 0
9:55 pm 21:55 Clear 46 7.8 27 -2.8 47 47 S 23 37 29.71 1006 10 16.0934 0 0
10:15 pm 22:15 Clear 46 7.9 27 -3 46 46 S 25 41 29.71 1006 10 16.0934 0 0
10:35 pm 22:35 Clear 46 7.6 27 -2.8 48 48 S 24 39 29.71 1006 10 16.0934 0 0
10:55 pm 22:55 Clear 46 7.5 27 -2.8 48 48 S 21 33 29.71 1006 10 16.0934 0 0
11:15 pm 23:15 Clear 45 7.1 27 -3 49 49 S 24 39 29.71 1006 10 16.0934 0 0
11:35 pm 23:35 Clear 44 6.9 27 -3 50 50 S 23 37 29.74 1007 10 16.0934 0 0
11:55 pm 23:55 Clear 44 6.8 26 -3.1 50 50 S 22 35 29.74 1007 10 16.0934 0 0

Powered by AerisWeather